Date Time,Air Temp,Sky Temp,Clarity,Light Level,Rain Sensor,Readings
2011-12-31 00:00:34,17.5,6.4,11.1,0.0,2.3,111
2011-12-31 00:05:34,17.5,6.4,11.2,0.0,2.3,111
2011-12-31 00:10:34,17.6,6.2,11.4,0.0,2.3,112
2011-12-31 00:15:34,17.6,6.1,11.5,0.0,2.3,111
2011-12-31 00:20:34,17.6,6.1,11.5,0.0,2.3,112
2011-12-31 00:25:34,17.6,6.0,11.6,0.0,2.3,112
2011-12-31 00:30:34,17.3,6.1,11.2,0.0,2.3,111
2011-12-31 00:35:34,17.6,5.6,12.0,0.0,3.2,112
2011-12-31 00:40:34,17.5,5.7,11.9,0.0,2.9,111
2011-12-31 00:45:34,17.5,5.9,11.6,0.0,2.5,112
2011-12-31 00:50:34,17.4,6.3,11.1,0.0,2.3,111
2011-12-31 00:55:34,17.5,6.4,11.1,0.0,2.3,112
2011-12-31 01:00:34,17.5,6.3,11.2,0.0,2.3,111
2011-12-31 01:05:34,17.5,6.2,11.3,0.0,2.3,111
2011-12-31 01:10:34,17.6,6.3,11.3,0.0,2.3,111
2011-12-31 01:15:34,17.6,6.3,11.3,0.0,2.3,112
2011-12-31 01:20:34,17.6,6.1,11.5,0.0,2.3,111
2011-12-31 01:25:34,17.6,6.1,11.5,0.0,2.4,111
2011-12-31 01:30:34,17.6,6.0,11.6,0.0,2.6,112
2011-12-31 01:35:34,17.5,4.9,12.7,0.0,4.1,111
2011-12-31 01:40:34,17.4,4.8,12.6,0.0,4.1,112
2011-12-31 01:45:34,17.4,4.9,12.4,0.0,3.5,112
2011-12-31 01:50:34,17.3,5.3,12.0,0.0,2.8,112
2011-12-31 01:55:34,17.3,4.7,12.5,0.0,3.5,111
2011-12-31 02:00:34,17.3,5.4,11.8,0.0,3.3,112
2011-12-31 02:05:34,17.3,5.9,11.3,0.0,3.0,112
2011-12-31 02:10:34,17.3,5.4,11.9,0.0,3.6,111
2011-12-31 02:15:34,17.3,5.3,12.0,0.0,5.7,112
2011-12-31 02:20:34,17.4,5.6,11.8,0.0,6.4,112
2011-12-31 02:25:34,17.4,6.2,11.2,0.0,9.3,111
2011-12-31 02:30:34,17.6,7.1,10.5,0.0,12.3,112
2011-12-31 02:35:34,17.6,7.6,10.0,0.0,5.0,111
2011-12-31 02:40:34,17.5,7.6,9.9,0.0,10.7,112
2011-12-31 02:45:34,17.6,7.3,10.3,0.0,20.9,111
2011-12-31 02:50:34,17.6,7.6,10.0,0.0,5.8,112
2011-12-31 02:55:34,17.4,7.9,9.5,0.0,4.2,112
2011-12-31 03:00:34,17.4,7.7,9.7,0.0,9.3,111
2011-12-31 03:05:34,17.4,7.9,9.5,0.0,4.0,112
2011-12-31 03:10:34,17.3,8.1,9.1,0.0,3.4,111
2011-12-31 03:15:34,17.2,8.5,8.7,0.0,2.8,111
2011-12-31 03:20:34,17.1,8.5,8.6,0.0,2.7,112
2011-12-31 03:25:34,17.1,6.3,10.8,0.0,2.7,111
2011-12-31 03:30:34,17.2,6.2,11.0,0.0,2.7,112
2011-12-31 03:35:34,17.2,6.3,10.9,0.0,2.7,111
2011-12-31 03:40:34,17.2,6.3,10.9,0.0,2.7,112
2011-12-31 03:45:34,17.2,6.4,10.8,0.0,2.6,111
2011-12-31 03:50:34,17.2,6.3,10.9,0.0,2.6,111
2011-12-31 03:55:34,17.3,6.4,10.9,0.0,2.6,112
2011-12-31 04:00:34,17.0,6.1,10.9,0.0,2.7,111
2011-12-31 04:05:34,17.6,5.2,12.5,0.0,3.0,112
2011-12-31 04:10:34,17.3,5.6,11.7,0.0,2.8,112
2011-12-31 04:15:34,17.2,5.5,11.7,0.0,2.8,111
2011-12-31 04:20:34,17.2,5.5,11.7,0.0,2.8,112
2011-12-31 04:25:34,17.2,6.0,11.2,0.0,2.6,111
2011-12-31 04:30:34,17.2,6.2,11.1,0.0,2.4,111
2011-12-31 04:35:34,17.3,6.1,11.2,0.0,2.6,112
2011-12-31 04:40:34,17.3,6.2,11.1,0.0,2.5,111
2011-12-31 04:45:34,17.3,6.0,11.3,0.0,2.4,112
2011-12-31 04:50:34,17.3,5.5,11.8,0.0,2.8,112
2011-12-31 04:55:34,17.3,5.9,11.3,0.0,2.6,111
2011-12-31 05:00:34,17.3,5.7,11.5,0.0,2.5,112
2011-12-31 05:05:34,17.3,5.4,11.8,0.0,2.6,112
2011-12-31 05:10:34,17.3,5.6,11.7,0.0,2.3,112
2011-12-31 05:15:34,17.3,5.3,12.0,0.0,2.4,111
2011-12-31 05:20:34,17.3,5.6,11.7,0.0,2.3,112
2011-12-31 05:25:34,17.4,5.7,11.7,0.0,2.3,112
2011-12-31 05:30:34,17.4,5.8,11.6,0.1,2.3,112
2011-12-31 05:35:34,17.5,6.1,11.4,0.1,2.3,111
2011-12-31 05:40:34,17.5,6.0,11.5,0.1,2.3,111
2011-12-31 05:45:34,17.6,6.0,11.6,0.1,2.3,112
2011-12-31 05:50:34,17.6,5.9,11.7,0.1,2.3,111
2011-12-31 05:55:34,17.6,5.8,11.8,0.1,2.3,112
2011-12-31 06:00:34,17.6,5.9,11.7,0.1,2.3,111
2011-12-31 06:05:34,17.6,5.2,12.4,0.1,2.3,112
2011-12-31 06:10:34,17.6,4.9,12.7,0.1,2.3,112
2011-12-31 06:15:34,17.6,5.2,12.4,0.1,2.3,111
2011-12-31 06:20:34,17.6,4.9,12.7,0.1,2.3,112
2011-12-31 06:25:34,17.6,4.9,12.8,0.1,2.3,112
2011-12-31 06:30:34,17.6,4.4,13.2,0.1,2.3,111
2011-12-31 06:35:34,17.3,3.9,13.4,0.1,2.3,112
2011-12-31 06:40:34,17.6,3.9,13.7,0.1,2.3,111
2011-12-31 06:45:34,17.6,4.7,12.9,0.1,2.3,112
2011-12-31 06:50:34,17.5,5.4,12.2,0.1,2.3,112
2011-12-31 06:55:34,17.5,3.6,13.9,0.1,2.3,111
2011-12-31 07:00:34,17.5,5.8,11.7,0.2,2.3,111
2011-12-31 07:05:34,17.5,5.6,11.9,0.3,2.3,112
2011-12-31 07:10:34,17.6,6.0,11.6,0.4,2.3,112
2011-12-31 07:15:34,17.6,6.0,11.5,0.8,2.3,111
2011-12-31 07:20:34,17.6,6.3,11.3,1.4,2.3,112
2011-12-31 07:25:34,17.6,6.5,11.1,2.4,2.3,111
2011-12-31 07:30:34,17.6,6.1,11.5,4.6,2.6,112
2011-12-31 07:35:34,17.5,5.9,11.6,8.1,2.7,111
2011-12-31 07:40:34,17.1,6.2,10.9,12.4,2.4,112
2011-12-31 07:45:34,17.4,5.5,11.9,16.5,2.8,111
2011-12-31 07:50:34,17.3,4.9,12.4,20.3,3.4,112
2011-12-31 07:55:34,17.2,4.4,12.8,23.7,3.7,111
2011-12-31 08:00:34,17.2,4.6,12.6,26.1,3.8,112
2011-12-31 08:05:34,17.1,4.5,12.6,28.0,3.8,111
2011-12-31 08:10:34,17.1,4.5,12.6,29.2,3.0,112
2011-12-31 08:15:34,17.1,4.9,12.3,29.8,2.8,112
2011-12-31 08:20:34,17.1,5.1,12.1,30.4,2.8,112
2011-12-31 08:25:34,17.1,5.3,11.9,30.8,2.9,112
2011-12-31 08:30:34,16.9,4.8,12.1,31.2,4.1,111
2011-12-31 08:35:34,17.2,5.2,12.0,31.4,4.1,112
2011-12-31 08:40:34,17.3,5.1,12.2,31.6,3.3,111
2011-12-31 08:45:34,17.3,5.8,11.5,31.6,2.5,112
2011-12-31 08:50:34,17.3,6.3,11.0,31.6,2.4,112
2011-12-31 08:55:34,17.3,6.5,10.9,31.8,2.6,111
2011-12-31 09:00:34,17.4,6.7,10.7,31.8,2.5,112
2011-12-31 09:05:34,17.4,6.2,11.2,31.8,3.0,111
2011-12-31 09:10:34,17.5,6.2,11.3,31.8,3.1,112
2011-12-31 09:15:34,17.4,6.6,10.9,31.8,2.8,111
2011-12-31 09:20:34,17.4,6.8,10.7,31.9,2.5,112
2011-12-31 09:25:34,17.5,6.5,10.9,31.9,2.6,111
2011-12-31 09:30:34,17.5,6.7,10.8,31.9,2.5,111
2011-12-31 09:35:34,17.5,7.0,10.5,32.0,2.3,112
2011-12-31 09:40:34,17.6,6.7,10.8,32.0,2.4,111
2011-12-31 09:45:34,17.6,6.4,11.2,32.0,2.6,111
2011-12-31 09:50:34,17.6,6.2,11.3,32.0,3.2,112
2011-12-31 09:55:34,17.6,6.3,11.3,32.0,3.0,111
2011-12-31 10:00:34,17.6,6.5,11.1,32.1,2.7,112
2011-12-31 10:05:34,17.6,6.4,11.1,32.2,2.7,111
2011-12-31 10:10:34,17.6,6.8,10.7,32.1,2.4,112
2011-12-31 10:15:34,17.6,6.9,10.7,32.1,2.3,111
2011-12-31 10:20:34,17.7,7.0,10.6,32.1,2.8,111
2011-12-31 10:25:34,17.7,5.7,12.0,32.2,4.0,112
2011-12-31 10:30:34,17.6,5.8,11.8,32.2,3.7,111
2011-12-31 10:35:34,17.5,6.4,11.1,32.3,3.0,112
2011-12-31 10:40:34,17.5,6.6,10.9,32.2,2.6,111
2011-12-31 10:45:34,17.5,7.0,10.5,32.3,2.4,112
2011-12-31 10:50:34,17.6,6.9,10.6,32.3,2.4,112
2011-12-31 10:55:34,17.5,6.2,11.4,32.3,2.9,111
2011-12-31 11:00:34,17.6,6.3,11.2,32.4,2.5,112
2011-12-31 11:05:34,17.6,6.5,11.1,32.4,2.5,112
2011-12-31 11:10:34,17.6,6.4,11.2,32.4,2.5,111
2011-12-31 11:15:34,17.7,6.3,11.4,32.3,2.8,111
2011-12-31 11:20:34,17.7,6.4,11.3,32.3,2.7,112
2011-12-31 11:25:34,17.7,6.3,11.3,32.4,2.6,111
2011-12-31 11:30:34,17.7,6.5,11.2,32.3,2.5,112
2011-12-31 11:35:34,17.7,6.6,11.1,32.3,2.5,112
2011-12-31 11:40:34,17.7,6.4,11.3,32.3,2.9,111
2011-12-31 11:45:34,17.7,5.8,11.8,32.2,3.2,112
2011-12-31 11:50:34,17.6,5.7,11.9,32.2,3.4,111
2011-12-31 11:55:34,17.6,6.3,11.3,32.2,3.1,112
2011-12-31 12:00:34,17.6,6.4,11.2,32.2,2.8,112
2011-12-31 12:05:34,17.7,6.5,11.1,32.2,2.6,111
2011-12-31 12:10:34,17.7,6.4,11.3,32.2,2.8,112
2011-12-31 12:15:34,17.8,6.0,11.8,32.3,3.3,111
2011-12-31 12:20:34,17.8,6.3,11.5,32.3,3.0,112
2011-12-31 12:25:34,17.9,6.3,11.6,32.3,4.3,111
2011-12-31 12:30:34,18.0,6.1,11.8,32.4,3.1,112
2011-12-31 12:35:34,18.0,6.3,11.7,32.3,3.2,111
2011-12-31 12:40:34,18.0,5.5,12.5,32.3,4.5,112
2011-12-31 12:45:34,17.9,5.9,12.0,32.4,2.7,111
2011-12-31 12:50:34,17.9,6.3,11.6,32.3,2.3,111
2011-12-31 12:55:34,18.0,6.8,11.3,32.4,2.3,111
2011-12-31 13:00:34,18.1,7.1,11.1,32.3,2.3,112
2011-12-31 13:05:34,18.3,6.9,11.4,32.3,2.1,111
2011-12-31 13:10:34,18.4,6.9,11.5,32.3,2.0,112
2011-12-31 13:15:34,18.4,7.5,10.9,32.2,1.9,111
2011-12-31 13:20:34,18.5,8.0,10.4,32.2,1.8,111
2011-12-31 13:25:34,18.5,7.2,11.3,32.3,1.8,111
2011-12-31 13:30:34,18.6,6.9,11.6,32.3,1.9,112
2011-12-31 13:35:34,18.5,6.9,11.6,32.2,1.8,111
2011-12-31 13:40:35,18.5,6.9,11.6,32.2,1.8,112
2011-12-31 13:45:35,18.4,5.0,13.4,32.3,1.8,111
2011-12-31 13:50:35,18.4,4.1,14.3,32.4,1.8,112
2011-12-31 13:55:35,18.7,5.3,13.3,32.3,1.8,111
2011-12-31 14:00:35,18.3,6.8,11.5,32.3,1.8,112
2011-12-31 14:05:35,18.3,7.0,11.4,32.2,1.8,111
2011-12-31 14:10:35,18.0,6.8,11.1,32.2,1.8,112
2011-12-31 14:15:35,18.3,7.2,11.0,32.1,1.8,111
2011-12-31 14:20:35,18.3,6.5,11.8,32.3,1.8,111
2011-12-31 14:25:35,18.3,6.7,11.6,32.3,1.8,111
2011-12-31 14:30:35,18.3,6.9,11.4,32.2,1.8,112
2011-12-31 14:35:35,18.3,6.3,12.0,32.3,1.9,111
2011-12-31 14:40:35,18.3,6.6,11.6,32.2,1.9,111
2011-12-31 14:45:35,18.2,6.6,11.7,32.1,2.0,112
2011-12-31 14:50:35,18.2,6.8,11.4,32.0,1.9,111
2011-12-31 14:55:35,18.2,6.6,11.5,31.9,2.0,111
2011-12-31 15:00:35,18.2,6.9,11.3,31.8,2.0,112
2011-12-31 15:05:35,18.1,6.9,11.3,31.6,2.2,111
2011-12-31 15:10:35,18.1,6.9,11.2,31.6,2.1,112
2011-12-31 15:15:35,18.1,6.7,11.3,31.6,2.1,111
2011-12-31 15:20:35,18.1,6.7,11.3,31.5,2.2,112
2011-12-31 15:25:35,18.0,6.6,11.4,31.4,2.4,111
2011-12-31 15:30:35,17.6,6.7,11.0,31.1,2.6,111
2011-12-31 15:35:35,17.9,6.5,11.4,31.1,2.9,112
2011-12-31 15:40:35,17.8,6.4,11.4,31.0,3.3,111
2011-12-31 15:45:35,17.7,6.6,11.1,31.0,2.7,112
2011-12-31 15:50:35,17.6,7.1,10.5,30.6,2.5,111
2011-12-31 15:55:35,17.3,6.7,10.6,30.2,2.4,111
2011-12-31 16:00:35,17.6,6.7,10.9,29.8,2.3,112
2011-12-31 16:05:35,17.6,6.6,11.1,28.4,2.3,111
2011-12-31 16:10:35,17.7,6.9,10.8,26.7,2.3,111
2011-12-31 16:15:35,17.7,6.8,10.9,24.5,2.3,111
2011-12-31 16:20:35,17.7,6.8,10.9,22.8,2.3,111
2011-12-31 16:25:35,17.7,6.7,11.0,19.7,2.3,112
2011-12-31 16:30:35,17.7,6.5,11.1,16.1,2.3,111
2011-12-31 16:35:35,17.7,6.6,11.2,11.9,2.3,112
2011-12-31 16:40:35,17.8,6.9,10.9,7.6,2.3,111
2011-12-31 16:45:35,17.8,6.8,11.0,5.1,2.3,111
2011-12-31 16:50:35,17.8,6.8,11.0,3.1,2.3,112
2011-12-31 16:55:35,17.8,6.6,11.2,1.9,2.3,111
2011-12-31 17:00:35,17.8,6.4,11.4,0.9,2.3,112
2011-12-31 17:05:35,17.8,6.3,11.5,0.5,2.3,111
2011-12-31 17:10:35,17.8,3.6,14.2,0.4,2.3,112
2011-12-31 17:15:35,17.8,4.0,13.7,0.3,2.3,111
2011-12-31 17:20:35,17.8,1.9,15.8,0.3,2.3,111
2011-12-31 17:25:35,17.7,0.1,17.6,0.2,2.3,112
2011-12-31 17:30:35,18.1,-1.6,19.7,0.2,2.3,111
2011-12-31 17:35:35,18.7,-0.7,19.4,0.1,2.2,112
2011-12-31 17:40:35,20.4,-3.3,23.7,0.2,2.1,112
2011-12-31 17:45:35,21.6,-3.8,25.4,0.2,2.3,112
2011-12-31 17:50:35,21.9,-3.5,25.4,0.1,2.6,111
2011-12-31 17:55:35,20.8,2.8,18.0,0.1,2.4,112
2011-12-31 18:00:35,18.5,2.8,15.7,0.1,1.9,111
2011-12-31 18:05:35,18.1,0.1,17.9,0.1,2.1,112
2011-12-31 18:10:35,18.9,-1.1,20.0,0.1,2.1,111
2011-12-31 18:15:35,19.0,5.3,13.7,0.1,1.9,112
2011-12-31 18:20:35,18.0,6.5,11.5,0.0,2.2,111
2011-12-31 18:25:35,17.8,6.6,11.1,0.0,2.3,112
2011-12-31 18:30:35,17.7,6.1,11.6,0.1,2.3,111
2011-12-31 18:35:35,17.7,4.1,13.5,0.1,2.3,112
2011-12-31 18:40:35,17.3,3.4,13.9,0.1,2.3,111
2011-12-31 18:45:35,17.6,5.9,11.6,0.1,2.3,112
2011-12-31 18:50:35,17.6,5.9,11.7,0.1,2.3,112
2011-12-31 18:55:35,17.6,5.9,11.7,0.1,2.3,111
2011-12-31 19:00:35,17.5,6.7,10.8,0.0,2.3,111
2011-12-31 19:05:35,17.5,6.6,10.9,0.0,2.3,112
2011-12-31 19:10:35,17.5,6.8,10.7,0.0,2.3,112
2011-12-31 19:15:35,17.6,7.1,10.4,0.0,2.3,112
2011-12-31 19:20:35,17.6,7.1,10.4,0.0,2.3,111
2011-12-31 19:25:35,17.6,6.9,10.7,0.0,2.3,112
2011-12-31 19:30:35,17.6,6.8,10.8,0.0,2.3,111
2011-12-31 19:35:35,17.6,7.1,10.6,0.0,2.3,111
2011-12-31 19:40:35,17.6,6.9,10.7,0.0,2.3,112
2011-12-31 19:45:35,17.6,6.8,10.8,0.0,2.3,111
2011-12-31 19:50:35,17.6,7.1,10.5,0.0,2.3,111
2011-12-31 19:55:35,17.7,7.2,10.4,0.0,2.3,112
2011-12-31 20:00:35,17.4,7.2,10.1,0.0,2.3,111
2011-12-31 20:05:35,17.7,7.4,10.3,0.0,2.3,111
2011-12-31 20:10:35,17.8,7.3,10.5,0.0,2.3,112
2011-12-31 20:15:35,17.8,7.2,10.6,0.0,2.4,111
2011-12-31 20:20:35,17.7,6.5,11.2,0.0,2.8,112
2011-12-31 20:25:35,17.7,7.2,10.4,0.0,2.5,111
2011-12-31 20:30:35,17.7,7.2,10.5,0.0,2.3,112
2011-12-31 20:35:35,17.7,7.3,10.4,0.0,2.3,111
2011-12-31 20:40:35,17.7,7.5,10.2,0.0,2.3,112
2011-12-31 20:45:35,17.7,7.0,10.7,0.0,2.6,111
2011-12-31 20:50:35,17.7,7.1,10.6,0.0,2.7,111
2011-12-31 20:55:35,17.7,6.2,11.5,0.0,3.6,111
2011-12-31 21:00:35,17.7,6.0,11.7,0.0,3.9,112
2011-12-31 21:05:35,17.6,6.1,11.6,0.0,3.9,111
2011-12-31 21:10:35,17.7,6.5,11.2,0.0,4.0,112
2011-12-31 21:15:35,17.7,7.2,10.5,0.0,23.5,111
2011-12-31 21:20:35,17.7,7.7,10.0,0.0,9.4,111
2011-12-31 21:25:35,17.7,8.0,9.6,0.0,26.2,112
2011-12-31 21:30:35,17.6,8.3,9.3,0.0,28.3,111
2011-12-31 21:35:35,17.5,8.6,8.9,0.0,33.5,112
2011-12-31 21:40:35,17.5,8.1,9.4,0.0,28.0,111
2011-12-31 21:45:35,17.7,8.9,8.8,0.0,25.6,112
2011-12-31 21:50:35,17.8,9.4,8.3,0.0,4.7,111
2011-12-31 21:55:35,17.7,9.7,7.9,0.0,2.5,111
2011-12-31 22:00:35,17.6,7.1,10.5,0.0,2.6,112
2011-12-31 22:05:35,17.6,6.9,10.7,0.0,17.4,111
2011-12-31 22:10:35,17.8,8.6,9.1,0.0,18.9,112
2011-12-31 22:15:35,18.0,8.2,9.8,0.0,14.3,111
2011-12-31 22:20:35,17.8,9.1,8.7,0.0,2.1,111
2011-12-31 22:25:35,17.7,6.7,11.0,0.0,2.3,112
2011-12-31 22:30:35,17.7,6.7,11.0,0.0,7.5,111
2011-12-31 22:35:35,17.8,6.9,10.9,0.0,12.7,111
2011-12-31 22:40:35,18.0,8.1,9.9,0.0,12.1,112
2011-12-31 22:45:35,17.9,6.6,11.3,0.0,2.6,111
2011-12-31 22:50:35,17.8,6.3,11.5,0.0,3.3,111
2011-12-31 22:55:35,17.8,6.2,11.5,0.0,3.1,112
2011-12-31 23:00:35,17.4,6.0,11.4,0.0,4.7,112
2011-12-31 23:05:35,17.8,5.6,12.3,0.0,17.5,111
2011-12-31 23:10:35,18.0,7.8,10.3,0.0,12.5,111
2011-12-31 23:15:35,18.0,7.2,10.8,0.0,3.9,112
2011-12-31 23:20:35,17.8,6.1,11.7,0.0,6.2,111
2011-12-31 23:25:35,17.8,6.3,11.5,0.0,7.8,111
2011-12-31 23:30:35,17.9,6.2,11.7,0.0,7.6,112
2011-12-31 23:35:35,17.8,6.4,11.5,0.0,5.6,112
2011-12-31 23:40:35,17.8,6.4,11.4,0.0,6.6,111
2011-12-31 23:45:35,17.9,7.1,10.8,0.0,12.6,112
2011-12-31 23:50:35,17.9,8.3,9.6,0.0,24.3,112
2011-12-31 23:55:35,17.7,8.7,9.0,0.0,25.0,111
